Theta_e
284 284 284 283 283 283 283 284 285 285 285 285 286 287 287 285 285 284 284 284 283 284
282 282 281 281 281 281 282 284 284 283 283 284 284 285 285 284 284 284 284 284 284 284
281 281 281 281 281 281 281 282 282 282 282 282 283 283 283 283 283 283 284 284 283 284
281 281 281 281 281 281 281 281 281 282 282 282 282 282 282 282 282 282 282 283 283 284
281 281 280 280 281 281 281 281 281 281 281 281 282 281 281 281 281 281 282 283 282 283
280 280 280 280 281 281 280 281 281 281 280 281 281 281 281 281 281 281 281 282 282 283
280 280 280 280 281 281 281 280 280 280 280 280 280 280 281 281 280 280 281 282 282 282
280 280 279 280 280 280 280 281 280 280 280 280 280 280 280 281 281 280 280 282 283 283
273 275 276 278 278 279 279 279 279 279 279 279 280 282 283 283 281 281 281 280 282 283
270 272 272 273 275 276 276 277 277 278 278 277 278 282 283 283 281 281 281 281 281 281
271 270 272 273 273 273 274 273 275 275 276 276 277 282 283 282 280 279 279 280 281 281
271 272 273 272 273 274 272 274 274 275 275 275 275 281 282 281 278 279 278 279 281 281
274 272 273 274 274 274 272 274 275 275 275 274 274 279 281 280 278 277 277 279 281 282
274 274 274 274 273 273 271 273 272 273 274 273 274 274 279 280 278 278 278 279 280 281
Wind_Speed
5 3 2 2 2 2 1 3 3 5 5 6 5 5 4 3 4 5 5 7 5 4
3 3 2 3 3 2 3 3 4 5 5 6 6 5 5 4 5 4 5 6 6 6
2 2 2 2 3 4 4 4 5 5 5 5 5 5 5 5 5 5 5 5 6 6
2 2 3 3 3 4 4 4 4 5 5 5 6 5 5 5 6 6 6 6 7 9
3 3 4 4 4 3 5 4 4 4 5 6 6 6 6 6 6 6 8 8 6 10
3 3 4 5 5 5 5 6 5 5 5 6 7 8 7 6 8 8 8 9 9 10
4 4 5 5 5 5 5 6 6 6 6 6 7 8 9 8 8 8 9 9 10 11
5 4 4 5 5 6 5 6 6 7 6 6 6 7 8 8 9 9 10 11 12 12
5 4 5 5 5 6 6 6 6 7 8 8 6 15 18 16 10 12 13 14 15 13
4 5 6 5 5 6 7 6 7 8 8 9 9 19 20 20 10 12 13 14 15 14
5 6 6 5 6 6 4 6 7 8 9 9 9 20 21 21 11 10 11 13 14 13
6 6 6 7 7 7 5 6 7 8 9 10 10 20 21 19 11 12 13 12 13 12
6 6 7 8 8 6 5 8 7 9 9 9 12 18 21 18 8 12 10 11 11 16
6 7 8 8 6 7 7 7 8 10 10 10 10 12 21 21 10 9 10 10 8 8
Wind_Direction
48 46 48 28 9 350 324 312 313 333 330 326 322 313 293 260 253 224 231 236 222 226
63 47 18 353 342 327 319 315 327 326 322 319 318 316 311 283 274 243 240 238 232 226
12 360 341 333 330 325 316 319 321 319 313 308 306 310 310 298 287 272 261 247 234 238
318 311 304 301 303 305 301 308 313 311 304 301 302 297 290 282 282 274 272 263 248 250
295 313 315 307 300 297 304 306 297 299 299 299 297 293 287 287 282 271 275 270 255 253
288 292 291 293 302 308 304 300 302 299 300 301 299 297 292 275 282 277 265 268 264 264
284 280 281 280 272 269 262 263 267 266 266 270 281 285 287 287 281 277 277 272 266 263
263 260 261 260 258 260 257 261 258 271 266 261 269 281 290 285 283 283 287 286 282 276
246 253 271 278 280 280 277 268 261 261 261 271 272 286 295 295 287 288 292 292 290 285
236 250 260 261 261 263 268 272 269 267 265 263 267 285 294 296 286 285 283 286 285 286
245 246 264 264 261 261 241 249 264 267 263 264 262 279 292 297 288 274 268 270 276 277
233 248 256 261 263 261 243 262 255 258 263 263 267 278 290 298 289 280 275 270 273 274
237 233 245 251 258 258 234 258 265 269 258 250 263 275 290 294 279 281 280 273 266 267
238 240 240 252 242 255 252 261 258 265 269 263 258 268 283 288 281 276 280 271 268 262